SCP
0 0 0 0 0 0 0 0 0 0 0 0 0 0 0 0 0 0 0 0 0 0 0 0 0 0 0 0 0 0 0 0 0 0 0 0 0 0 0 0 0 0 0 0
0 0 0 0 0 0 0 0 0 0 0 0 0 0 0 0 0 0 0 0 0 0 0 0 0 0 0 0 0 0 0 0 0 0 0 0 0 0 0 0 0 0 0 0
0 0 0 0 0 0 0 0 0 0 0 0 0 0 0 0 0 0 0 0 0 0 0 0 0 0 0 0 0 0 0 0 0 0 0 0 0 0 0 0 0 0 0 0
0 0 0 0 0 0 0 0 0 0 0 0 0 0 0 0 0 0 0 0 0 0 0 0 0 0 0 0 0 0 0 0 0 0 0 0 0 0 0 0 0 0 0 0
0 0 0 0 0 0 0 0 0 0 0 0 0 0 0 0 0 0 0 0 0 0 0 0 0 0 0 0 0 0 0 0 0 0 0 0 0 0 0 0 0 0 0 0
0 0 0 0 0 0 0 0 0 0 0 0 0 0 0 0 0 0 0 0 0 0 0 0 0 0 0 0 0 0 0 0 0 0 0 0 0 0 0 0 0 0 0 0
0 0 0 0 0 0 0 0 0 0 0 0 0 0 0 0 0 0 0 0 0 0 1 1 0 0 0 0 0 0 0 0 0 0 0 0 0 0 0 0 0 0 0 0
0 0 0 0 0 0 0 0 0 0 0 0 0 0 0 0 0 0 1 1 1 1 1 1 1 0 0 0 0 0 0 0 0 0 0 0 0 0 0 0 0 0 0 0
0 0 0 0 0 0 0 0 0 0 0 0 0 0 0 0 0 0 1 1 1 1 1 1 1 0 0 0 0 0 0 0 0 0 0 0 0 0 0 0 0 0 0 0
0 0 0 0 0 0 0 0 0 0 0 0 0 0 0 1 1 1 1 1 1 1 1 1 1 0 0 0 0 0 0 0 0 0 0 0 0 0 0 0 0 0 0 0
0 0 0 0 0 0 0 0 0 1 1 1 1 1 1 1 1 1 1 1 1 1 1 1 1 1 0 0 0 0 0 0 0 0 0 0 0 0 0 0 0 0 0 0
0 0 0 0 0 0 0 0 1 1 1 1 1 1 1 1 1 1 1 1 1 1 1 1 1 1 1 0 0 0 0 0 0 0 0 0 0 0 0 0 0 0 0 0
0 0 0 0 0 0 0 0 0 1 1 1 1 1 1 1 1 1 1 1 1 1 1 1 1 1 1 0 0 0 0 0 0 0 0 0 0 0 0 0 0 0 0 0
0 0 0 0 0 0 0 0 0 0 1 1 1 1 1 0 0 0 1 1 1 1 1 1 1 1 1 1 0 0 0 0 0 0 0 0 0 0 0 0 0 0 0 0
0 0 0 0 0 0 0 0 0 0 0 0 0 0 0 0 0 0 0 0 0 1 1 1 1 1 1 1 0 0 0 0 0 0 0 0 0 0 0 0 0 0 0 0
0 0 0 0 0 0 0 0 0 0 0 0 0 0 0 0 0 0 0 0 0 0 1 1 1 1 1 1 0 0 0 0 0 0 0 0 0 0 0 0 0 0 0 0
0 0 0 0 0 0 0 0 0 0 0 0 0 0 0 0 0 0 0 0 0 0 0 1 1 1 1 1 0 0 0 0 0 0 0 0 0 0 0 0 0 0 0 0
0 0 0 0 0 0 0 0 0 0 0 0 0 0 0 0 0 0 0 0 0 0 0 0 0 1 1 0 0 0 0 0 0 0 0 0 0 0 0 0 0 0 0 0
0 0 0 0 0 0 0 0 0 0 0 0 0 0 0 0 0 0 0 0 0 0 0 0 0 0 0 0 0 0 0 0 0 0 0 0 0 0 0 0 0 0 0 0
0 0 0 0 0 0 0 0 0 0 0 0 0 0 0 0 0 0 0 0 0 0 0 0 0 0 0 0 0 0 0 0 0 0 0 0 0 0 0 0 0 0 0 0
0 0 0 0 0 0 0 0 0 0 0 0 0 0 0 0 0 0 0 0 0 0 0 0 0 0 0 0 0 0 0 0 0 0 0 0 0 0 0 0 0 0 0 0
0 0 0 0 0 0 0 0 0 0 0 0 0 0 0 0 0 0 0 0 0 0 0 0 0 0 0 0 0 0 0 0 0 0 0 0 0 0 0 0 0 0 0 0
0 0 0 0 0 0 0 0 0 0 0 0 0 0 0 0 0 0 0 0 0 0 0 0 0 0 0 0 0 0 0 0 0 0 0 0 0 0 0 0 0 0 0 0
0 0 0 0 0 0 0 0 0 0 0 0 0 0 0 0 0 0 0 0 0 0 0 0 0 0 0 0 0 0 0 0 0 0 0 0 0 0 0 0 0 0 0 0
0 0 0 0 0 0 0 0 0 0 0 0 0 0 0 0 0 0 0 0 0 0 0 0 0 0 0 0 0 0 0 0 0 0 0 0 0 0 0 0 0 0 0 0
0 0 0 0 0 0 0 0 0 0 0 0 0 0 0 0 0 0 0 0 0 0 0 0 0 0 0 0 0 0 0 0 0 0 0 0 0 0 0 0 0 0 0 0
0 0 0 0 0 0 0 0 0 0 0 0 0 0 0 0 0 0 0 0 0 0 0 0 0 0 0 0 0 0 0 0 0 0 0 0 0 0 0 0 0 0 0 0
Wind_Speed
16 16 17 18 18 18 18 19 21 22 22 19 17 16 13 11 9 8 8 7 6 5 4 4 5 4 4 3 2 2 2 3 4 5 6 5 5 5 5 5 6 6 7 7
16 17 17 19 20 20 21 21 21 22 21 17 14 11 10 9 9 9 9 8 6 6 5 6 6 6 6 5 4 4 4 5 5 7 8 7 7 7 6 6 6 7 7 8
14 13 13 13 11 11 13 14 16 18 17 15 15 13 12 9 8 9 9 8 7 7 7 7 7 6 6 5 4 5 5 5 6 8 9 8 8 8 7 7 7 8 8 9
10 9 9 5 6 9 13 15 15 15 15 16 16 13 10 9 9 9 8 8 7 7 7 7 7 7 6 6 5 5 5 6 7 9 9 9 8 8 7 6 7 7 8 10
7 11 11 9 7 9 12 15 14 13 13 13 12 9 11 9 8 8 8 7 7 7 7 8 8 8 7 7 6 6 6 6 8 9 10 10 9 9 7 7 7 8 8 9
9 11 9 7 11 9 11 12 8 11 13 14 12 12 10 4 4 7 8 7 7 7 8 8 8 8 8 8 7 7 6 6 8 9 10 10 10 9 8 7 7 8 8 7
11 11 8 7 11 13 12 12 19 20 20 19 17 15 16 12 9 8 8 8 9 9 9 9 9 9 9 9 8 7 6 6 7 8 8 9 9 9 9 8 8 8 8 7
7 8 4 12 15 13 16 20 22 22 22 22 21 19 18 17 13 11 10 10 11 10 10 9 9 10 10 9 8 7 7 8 8 8 8 9 9 9 9 10 10 9 8 8
7 8 13 15 16 17 19 20 21 21 22 21 21 20 19 18 15 13 12 11 11 12 11 10 11 11 11 9 8 8 8 9 9 9 8 9 10 11 10 9 9 9 8 7
10 9 14 16 18 20 21 21 21 21 21 20 20 20 19 16 15 13 12 12 12 14 13 12 12 12 11 9 9 9 10 9 9 9 9 9 8 9 9 10 9 8 8 7
10 10 13 13 19 22 22 21 21 20 19 19 19 18 18 16 15 13 11 11 13 14 14 14 14 13 12 10 10 11 11 10 10 10 9 9 8 6 7 8 6 7 8 8
6 12 11 12 17 20 21 21 21 20 20 19 18 18 17 16 15 13 11 10 13 15 15 15 15 14 13 12 12 12 10 10 9 9 8 8 9 8 7 4 7 5 3 3
8 13 11 14 17 19 19 21 20 18 17 17 17 17 17 16 15 15 12 10 13 15 16 16 16 16 15 14 14 13 11 10 9 8 9 9 9 9 9 6 5 5 4 3
10 11 12 16 18 19 20 21 20 19 17 16 15 15 15 15 16 16 14 12 11 13 15 16 17 17 16 16 15 14 13 10 9 8 9 9 9 10 10 11 11 9 7 7
11 10 12 15 17 18 19 20 21 19 19 18 17 15 15 16 16 16 16 15 11 12 14 16 17 17 17 17 16 16 13 11 10 9 9 9 10 10 10 12 11 11 12 10
14 15 16 17 19 20 21 22 21 21 21 20 19 18 17 15 15 14 14 14 12 12 13 15 17 17 17 18 17 14 13 11 11 10 10 10 10 10 10 11 11 11 12 13
17 19 20 21 22 22 21 21 21 21 21 21 21 20 19 17 15 14 13 13 13 13 12 13 15 16 18 18 17 13 13 13 13 11 11 11 11 11 11 11 11 11 11 12
19 21 22 23 23 23 24 23 21 22 21 22 22 20 19 18 16 14 13 12 12 12 11 12 13 15 17 18 16 13 12 13 13 13 12 11 11 11 11 12 13 13 11 12
22 22 22 22 22 22 22 23 22 22 22 21 21 21 20 19 17 14 12 12 11 10 10 10 9 14 16 18 16 12 13 14 14 14 13 12 12 12 12 12 13 13 12 12
24 23 24 24 23 22 22 21 22 22 22 22 22 21 21 19 17 14 12 10 7 6 8 10 8 11 15 16 16 13 14 15 15 14 14 13 14 13 13 13 13 13 13 12
24 24 24 24 23 23 22 22 21 22 22 22 22 22 21 19 17 15 12 10 7 5 7 9 8 8 11 12 16 14 14 15 14 14 14 14 14 14 14 14 14 13 13 12
24 23 24 24 24 23 21 21 21 22 22 22 22 21 20 19 18 15 14 10 8 6 5 7 7 7 8 11 13 14 14 15 14 13 14 14 14 14 15 15 14 13 13 13
22 23 24 24 24 23 24 22 21 21 21 21 21 21 20 17 14 13 12 9 8 7 6 7 8 6 6 10 11 14 15 15 15 14 14 14 14 14 14 16 14 14 13 13
23 23 23 23 23 23 23 22 22 19 21 21 19 20 19 15 13 12 11 10 10 10 8 8 10 9 8 9 11 13 14 14 14 14 14 14 14 14 14 14 14 14 14 15
22 22 22 22 20 17 19 21 21 19 19 16 18 18 16 13 13 12 11 12 10 9 10 11 13 13 11 11 12 13 13 14 14 14 14 14 14 14 14 14 14 13 13 13
20 18 17 18 16 15 15 15 15 14 14 14 13 13 12 11 13 12 11 12 14 12 11 10 11 12 13 13 14 14 13 13 14 14 15 13 14 14 14 14 17 14 12 12
20 18 15 15 15 15 15 16 16 15 14 13 13 12 12 11 11 11 12 11 11 11 11 11 11 12 12 13 13 13 13 13 13 15 15 14 13 12 13 15 13 12 11 11
Wind_Direction
280 287 287 284 281 275 261 261 272 282 287 295 304 308 304 295 283 274 273 272 272 272 268 254 238 227 234 239 226 206 200 191 175 164 159 159 157 154 150 150 145 138 130 123
284 282 281 279 275 272 270 268 268 274 279 286 296 303 296 282 272 273 278 273 265 254 249 240 235 232 234 240 241 235 222 204 182 171 163 162 161 158 153 146 135 130 122 115
285 293 293 275 276 280 278 273 272 275 284 296 301 299 294 286 276 277 281 275 261 251 244 235 232 233 238 242 247 250 240 206 179 175 167 162 163 159 151 146 137 129 122 114
285 295 268 295 328 298 293 290 290 287 289 295 298 300 290 274 271 276 276 267 258 249 241 230 225 225 235 244 246 245 233 206 182 173 164 160 163 156 149 147 141 133 126 119
280 286 286 295 316 321 307 298 301 306 310 309 313 295 270 250 240 255 266 261 255 243 235 224 221 221 227 238 243 243 230 203 181 174 165 165 164 157 153 151 142 138 132 132
276 288 289 335 17 349 303 288 356 344 329 320 311 291 303 321 236 235 236 236 233 227 222 216 216 216 226 237 239 238 226 199 179 172 169 168 165 160 154 150 143 139 131 134
277 277 278 7 359 327 301 332 341 324 315 307 302 297 304 302 275 248 232 221 215 215 212 212 209 211 227 238 240 233 212 188 174 168 167 165 160 157 156 155 146 136 131 128
280 276 297 10 342 333 320 318 313 309 305 300 299 297 293 290 280 259 238 220 208 204 206 204 203 208 224 234 234 220 202 188 175 170 168 160 161 160 161 155 151 147 142 138
298 297 332 339 329 328 324 316 312 308 304 300 296 296 294 291 285 267 244 226 207 202 202 198 198 207 222 225 217 211 202 189 175 170 169 166 168 165 165 170 173 165 166 160
289 295 330 335 343 341 334 325 319 314 309 305 300 297 296 293 289 276 249 225 209 202 199 197 198 204 216 216 206 209 202 188 176 173 175 174 177 176 177 180 179 174 175 166
289 330 340 350 353 345 340 339 338 334 329 325 318 311 305 299 294 285 262 232 212 204 201 197 195 199 205 204 201 206 200 190 184 184 182 176 183 177 190 182 180 183 178 171
345 351 325 338 340 341 340 340 341 341 340 340 338 332 325 315 308 299 278 244 220 211 204 197 192 195 197 196 199 204 199 195 191 188 183 185 176 163 60 81 105 100 90 173
350 331 332 336 334 337 334 333 334 335 336 337 338 338 336 331 324 313 295 264 233 220 208 198 193 193 192 192 197 203 203 196 194 192 185 193 188 182 168 128 100 120 134 121
347 340 333 335 328 327 326 324 324 323 326 328 328 330 332 331 332 326 314 292 261 237 219 204 196 194 190 189 193 199 202 193 198 195 192 195 195 193 184 174 173 172 170 160
328 323 310 310 313 316 317 316 317 317 319 319 320 322 325 326 326 325 321 311 285 249 227 211 202 195 188 188 191 196 199 193 195 198 197 198 194 195 190 185 183 176 168 163
304 304 303 305 308 310 311 312 312 312 312 311 311 312 314 314 314 317 320 321 305 271 238 218 207 196 187 188 189 193 197 191 187 195 197 196 194 194 191 189 189 184 179 174
296 303 306 306 305 304 303 304 303 303 304 304 305 305 303 304 306 310 316 317 311 294 266 232 214 198 189 188 189 192 191 180 184 200 200 196 195 196 194 192 193 191 189 177
293 295 297 297 298 300 300 299 299 299 299 300 301 299 297 297 299 303 306 310 310 302 280 247 221 203 192 189 191 193 189 180 186 200 200 198 197 197 197 196 196 195 191 171
307 304 303 301 300 299 299 299 298 297 298 297 296 296 293 289 289 292 295 301 306 301 294 281 237 208 196 191 188 193 191 188 185 196 199 190 196 202 200 199 198 196 195 186
317 315 313 310 307 305 303 300 298 297 297 298 296 293 290 287 284 283 284 283 280 286 301 297 261 220 204 191 189 194 192 193 192 193 196 193 197 204 203 201 201 200 201 201
320 318 316 314 311 308 306 303 300 298 296 295 293 291 289 286 283 278 272 273 270 275 296 294 270 234 210 189 190 200 195 194 196 196 196 198 198 203 205 205 205 206 206 208
319 317 315 313 311 309 308 306 303 299 296 293 291 290 289 286 283 276 263 258 255 245 264 275 266 249 219 193 195 207 202 196 196 198 199 200 200 202 205 207 208 210 212 214
316 314 313 313 313 311 309 307 303 299 294 291 289 288 286 282 281 278 272 258 242 226 239 264 279 285 230 217 208 209 209 203 200 200 201 202 203 204 206 209 211 212 214 216
314 314 314 313 313 311 309 307 304 299 294 290 283 281 281 279 272 267 265 253 230 223 234 246 260 264 243 238 224 213 212 208 205 204 204 204 205 205 207 209 211 213 216 219
313 312 311 312 313 310 308 308 305 300 295 288 283 280 276 270 267 269 269 270 258 236 244 236 232 237 242 241 228 218 214 211 208 206 207 207 207 207 206 208 211 213 215 216
312 310 309 309 310 309 310 308 304 299 294 288 282 278 273 268 264 261 257 258 258 248 248 244 232 223 229 230 226 220 217 210 205 210 213 210 211 210 209 208 210 212 215 217
312 312 313 315 317 316 313 309 305 302 298 290 283 277 273 269 265 262 260 258 257 249 242 236 232 229 226 224 223 219 215 213 210 208 211 212 212 211 210 209 209 208 212 216